Weather History for Nebraska City, NE

Change the Weather History Date:

Monday, October 8, 2012

  Actual Average (KSDA) Record (KSDA)
Temperature  
Mean Temperature 54 °F -  
Max Temperature 70 °F 70 °F 91 °F (1949)
Min Temperature 39 °F 44 °F 21 °F (2000)
Degree Days  
Heating Degree Days 10    
Growing Degree Days 4 (Base 50)    
Moisture  
Dew Point 33 °F    
Average Humidity 51    
Maximum Humidity 75    
Minimum Humidity 25    
Precipitation  
Precipitation 0.00 in - - ()
Sea Level Pressure  
Sea Level Pressure 29.94 in    
Wind  
Wind Speed 14 mph (SSW)    
Max Wind Speed 23 mph    
Max Gust Speed 30 mph    
Visibility 10 miles    
Events      
Averages and records for this station are not official NWS values.
T = Trace of Precipitation, MM = Missing Value Source: NWS Daily Summary

Daily Weather History Graph

Daily Weather History Graph

Search for Another Location

Airport:

Trip Planner

Search our weather history database for the weather conditions in past years. The results will help you decide how hot, cold, wet, or windy it might be!

Date:

Astronomy

Oct. 08, 2012 Rise Set
Actual Time 7:27 AM CDT 6:53 PM CDT
Civil Twilight 7:00 AM CDT 7:20 PM CDT
Nautical Twilight 6:28 AM CDT 7:52 PM CDT
Astronomical Twilight 5:56 AM CDT 8:23 PM CDT
Moon 12:06 AM CDT (10/8) 2:45 PM CDT (10/8)
Length of Visible Light 12h 20m
Length of Day
11h 25m
Last Quarter, 46% of the Moon is Illuminated
Oct 8
Last Quarter
Oct 15
New
Oct 21
First Quarter
Oct 29
Full
Nov 6
Last Quarter

Hourly Weather History & Observations

Time (CDT) Temp. Windchill Dew Point Humidity Pressure Visibility Wind Dir Wind Speed Gust Speed Precip Events Conditions
12:15 AM 41.9 °F 35.0 °F 31.8 °F 67% 30.05 in 10.0 mi SW 12.7 mph - N/A   Clear
12:35 AM 42.8 °F 36.2 °F 32.0 °F 66% 30.05 in 10.0 mi SW 12.7 mph - N/A   Clear
12:55 AM 42.6 °F 35.9 °F 32.0 °F 66% 30.05 in 10.0 mi SW 12.7 mph - N/A   Clear
1:15 AM 41.9 °F 35.0 °F 32.0 °F 68% 30.05 in 10.0 mi SW 12.7 mph - N/A   Clear
1:35 AM 41.4 °F 34.7 °F 32.0 °F 69% 30.05 in 10.0 mi SW 11.5 mph - N/A   Clear
1:55 AM 41.0 °F 34.3 °F 32.0 °F 70% 30.05 in 10.0 mi SW 11.5 mph - N/A   Clear
2:15 AM 41.0 °F 33.9 °F 32.0 °F 70% 30.05 in 10.0 mi SW 12.7 mph - N/A   Clear
2:35 AM 40.6 °F 33.4 °F 32.0 °F 71% 30.04 in 10.0 mi SW 12.7 mph - N/A   Clear
2:55 AM 41.2 °F 34.5 °F 32.0 °F 70% 30.03 in 10.0 mi SW 11.5 mph - N/A   Clear
3:15 AM 41.2 °F 34.1 °F 32.0 °F 70% 30.02 in 10.0 mi SW 12.7 mph - N/A   Clear
3:35 AM 41.4 °F 34.3 °F 32.2 °F 70% 30.02 in 10.0 mi SW 12.7 mph - N/A   Clear
3:55 AM 41.2 °F 34.5 °F 32.0 °F 70% 30.01 in 10.0 mi SW 11.5 mph - N/A   Clear
4:15 AM 41.0 °F 33.9 °F 32.0 °F 70% 30.01 in 10.0 mi SW 12.7 mph - N/A   Clear
4:35 AM 40.1 °F 33.2 °F 32.0 °F 73% 30.00 in 10.0 mi SSW 11.5 mph - N/A   Clear
4:55 AM 40.3 °F 33.4 °F 32.0 °F 72% 30.00 in 10.0 mi SW 11.5 mph - N/A   Clear
5:15 AM 40.1 °F 32.7 °F 32.0 °F 73% 30.00 in 10.0 mi SW 12.7 mph - N/A   Clear
5:35 AM 39.9 °F 32.9 °F 32.0 °F 73% 30.00 in 10.0 mi SW 11.5 mph - N/A   Clear
5:55 AM 39.4 °F 32.3 °F 32.0 °F 75% 30.01 in 10.0 mi SW 11.5 mph - N/A   Clear
6:15 AM 39.4 °F 32.7 °F 32.0 °F 75% 30.00 in 10.0 mi SW 10.4 mph - N/A   Clear
6:35 AM 39.2 °F 32.0 °F 32.0 °F 75% 30.00 in 10.0 mi SW 11.5 mph - N/A   Clear
6:55 AM 40.1 °F 32.7 °F 32.0 °F 73% 29.99 in 10.0 mi SW 12.7 mph - N/A   Clear
7:15 AM 40.1 °F 32.7 °F 32.0 °F 73% 29.99 in 10.0 mi SW 12.7 mph - N/A   Clear
7:35 AM 40.5 °F 33.2 °F 32.0 °F 72% 29.99 in 10.0 mi SW 12.7 mph - N/A   Clear
7:55 AM 41.0 °F 33.9 °F 32.0 °F 70% 29.99 in 10.0 mi SW 12.7 mph - N/A   Clear
8:15 AM 41.5 °F 34.2 °F 32.2 °F 69% 29.99 in 10.0 mi SW 13.8 mph - N/A   Clear
8:35 AM 41.9 °F 34.6 °F 32.4 °F 69% 30.00 in 10.0 mi SW 13.8 mph - N/A   Clear
8:55 AM 41.7 °F 34.8 °F 32.5 °F 70% 30.00 in 10.0 mi SW 12.7 mph - N/A   Clear
9:15 AM 43.2 °F 37.0 °F 32.9 °F 67% 29.99 in 10.0 mi SW 11.5 mph 18.4 mph N/A   Clear
9:35 AM 45.1 °F 38.4 °F 33.4 °F 64% 29.99 in 10.0 mi SW 15.0 mph - N/A   Clear
9:55 AM 47.5 °F - 34.2 °F 60% 29.99 in 10.0 mi SSW 16.1 mph 20.7 mph N/A   Clear
10:15 AM 50.4 °F - 34.7 °F 55% 29.99 in 10.0 mi SW 18.4 mph 21.9 mph N/A   Clear
10:35 AM 52.2 °F - 34.9 °F 52% 29.99 in 10.0 mi SW 15.0 mph - N/A   Clear
10:55 AM 54.0 °F - 35.2 °F 49% 29.98 in 10.0 mi SSW 17.3 mph - N/A   Clear
11:15 AM 55.8 °F - 35.8 °F 47% 29.97 in 10.0 mi SSW 15.0 mph - N/A   Clear
11:35 AM 58.1 °F - 36.0 °F 44% 29.97 in 10.0 mi SSW 13.8 mph 23.0 mph N/A   Clear
11:55 AM 59.0 °F - 36.1 °F 42% 29.96 in 10.0 mi SSW 13.8 mph - N/A   Clear
12:15 PM 60.8 °F - 35.8 °F 39% 29.95 in 10.0 mi SSW 17.3 mph 20.7 mph N/A   Clear
12:55 PM 63.3 °F - 33.6 °F 33% 29.94 in 10.0 mi SW 16.1 mph 25.3 mph N/A   Clear
1:15 PM 64.6 °F - 33.1 °F 31% 29.92 in 10.0 mi SSW 15.0 mph 19.6 mph N/A   Clear
1:35 PM 66.2 °F - 33.6 °F 30% 29.90 in 10.0 mi SSW 18.4 mph - N/A   Clear
1:55 PM 67.1 °F - 34.2 °F 30% 29.89 in 10.0 mi SSW 17.3 mph 26.5 mph N/A   Clear
2:15 PM 67.3 °F - 33.3 °F 28% 29.88 in 10.0 mi SSW 18.4 mph 24.2 mph N/A   Clear
2:35 PM 68.9 °F - 34.0 °F 28% 29.88 in 10.0 mi SW 20.7 mph 27.6 mph N/A   Clear
2:55 PM 69.1 °F - 33.8 °F 27% 29.87 in 10.0 mi SW 17.3 mph 27.6 mph N/A   Clear
3:15 PM 69.4 °F - 34.0 °F 27% 29.86 in 10.0 mi SSW 21.9 mph 29.9 mph N/A   Clear
3:35 PM 69.8 °F - 33.4 °F 26% 29.85 in 10.0 mi SW 16.1 mph 23.0 mph N/A   Clear
3:55 PM 70.2 °F - 33.3 °F 26% 29.84 in 10.0 mi SSW 18.4 mph 25.3 mph N/A   Clear
4:15 PM 69.8 °F - 33.6 °F 26% 29.84 in 10.0 mi SW 23.0 mph 28.8 mph N/A   Clear
4:35 PM 69.6 °F - 33.1 °F 26% 29.83 in 10.0 mi SSW 17.3 mph 24.2 mph N/A   Clear
4:55 PM 69.8 °F - 32.7 °F 25% 29.83 in 10.0 mi SW 16.1 mph 23.0 mph N/A   Clear
5:15 PM 69.8 °F - 33.1 °F 26% 29.83 in 10.0 mi SW 16.1 mph - N/A   Clear
5:35 PM 69.1 °F - 33.1 °F 26% 29.83 in 10.0 mi SW 19.6 mph 24.2 mph N/A   Clear
5:55 PM 68.5 °F - 32.9 °F 27% 29.83 in 10.0 mi SSW 16.1 mph 21.9 mph N/A   Clear
6:15 PM 66.9 °F - 33.4 °F 29% 29.83 in 10.0 mi SSW 12.7 mph - N/A   Clear
6:35 PM 65.5 °F - 33.3 °F 30% 29.83 in 10.0 mi SSW 12.7 mph - N/A   Clear
6:55 PM 63.9 °F - 32.9 °F 31% 29.83 in 10.0 mi SSW 12.7 mph - N/A   Clear
7:35 PM 61.5 °F - 32.9 °F 34% 29.83 in 10.0 mi South 12.7 mph - N/A   Clear
8:35 PM 60.1 °F - 33.8 °F 37% 29.83 in 10.0 mi SSW 17.3 mph - N/A   Clear
8:55 PM 59.4 °F - 33.8 °F 38% 29.84 in 10.0 mi South 16.1 mph - N/A   Clear
9:15 PM 58.8 °F - 34.2 °F 40% 29.84 in 10.0 mi South 16.1 mph - N/A   Clear
9:35 PM 58.3 °F - 34.7 °F 41% 29.84 in 10.0 mi SSW 18.4 mph 24.2 mph N/A   Clear
9:55 PM 58.5 °F - 35.1 °F 42% 29.84 in 10.0 mi SSW 18.4 mph 24.2 mph N/A   Clear
10:15 PM 58.3 °F - 34.9 °F 41% 29.84 in 10.0 mi SSW 17.3 mph - N/A   Clear
10:55 PM 58.1 °F - 34.7 °F 41% 29.84 in 10.0 mi SSW 16.1 mph 26.5 mph N/A   Clear
11:35 PM 56.3 °F - 34.7 °F 44% 29.84 in 10.0 mi SSW 15.0 mph - N/A   Clear
11:55 PM 55.8 °F - 34.7 °F 45% 29.84 in 10.0 mi SSW 15.0 mph - N/A   Clear